Portada
METAR-TAF:

METAR-TAF

Aeroports :

Santa Caterina, Egipte

latitud: 28-41-07N, longitud: 034-03-45E, altitud: 1331 m

Observació

L'informe es va fer fa 1 hora i 4 minuts, a les 17:00 UTC
Vent 9 kt del Nord
Temperatura 27°C
Humitat 26%
Pressió 1022 hPa
Visibilitat 10 km o més
sense núvols per sota de 1500 mi sense presència de cumulonimbus.

METAR: HESC 191700Z 01009KT CAVOK 27/06 Q1022 NOSIG

Hora: 20:04 (18:04 UTC)

Pronòstic

L'informe es va fer fa 1 hora i 4 minuts, a les 17:00 UTC
Pronòstic vàlid del 19 a les 18 UTC al 20 a les 24 UTC
Vent 10 kt del Nord/Nord-Est
Visibilitat 10 km o més
sense núvols per sota de 1500 mi sense presència de cumulonimbus.

TAF: HESC 191700Z 1918/2024 03010KT CAVOK

Observacions i pronòstics meteorològics de més de 4000 aeroports (METAR i TAF).

Les estacions disponibles són els punts grocs i vermells al mapa.

Posi el ratolí al punt desitjat per veure el nom de l'estació.

Feu clic per veure les observacions i els pronòstics meteorològics.

Per canviar el mapa: feu clic els botons verds amb una creu de color negre per apropar; al botó verd amb un guió per allunyar la imatge; o en les fletxes verdes per a mapes adjacents.


METAR-TAF: